CAPE
nan nan nan nan nan nan nan nan nan nan nan nan nan nan nan nan nan nan 0 nan nan nan nan nan nan nan nan nan nan nan nan nan 0 0 0 1 5 5 12 14 14 13 5 nan nan nan nan 0 0 2 6 9 15 15 19 22 22 20 21 17 17 16 14 12 12 13 12 12 15 15 20 20 4 4 0 0 0 0 0 nan nan nan nan nan nan 13
nan nan nan nan nan nan nan nan nan nan nan 0 nan nan nan nan nan nan 0 0 0 nan nan nan nan nan nan nan nan nan 0 1 1 1 2 3 8 8 12 16 16 9 1 nan nan nan nan 0 0 2 5 8 13 13 16 22 22 22 19 15 15 13 14 15 15 15 12 13 11 11 9 3 0 0 nan nan 3 3 13 19 19 13 2 1 1 18
nan nan nan nan nan nan nan nan nan nan nan 1 nan nan nan nan nan nan nan nan nan 0 nan nan nan nan nan nan nan nan 0 1 3 3 5 7 11 11 13 12 12 5 1 0 0 0 0 1 1 3 5 8 11 11 15 19 19 16 17 12 12 9 10 11 11 12 12 11 8 8 2 nan nan nan nan 1 9 9 32 44 44 28 11 11 11 45
1 nan nan nan nan nan nan nan nan nan 0 0 nan nan nan 0 0 0 nan nan nan 0 nan nan nan nan nan nan nan nan 0 2 3 3 5 8 11 11 13 8 8 4 1 1 1 2 2 3 3 4 5 8 10 10 14 18 18 16 14 11 11 10 9 8 8 8 8 8 6 6 2 nan nan nan nan 1 5 5 20 37 37 31 24 30 30 73
8 1 nan nan nan nan nan nan nan nan 1 nan nan nan nan 1 nan nan nan nan nan 0 nan nan nan nan nan nan nan nan 0 2 3 3 5 7 10 10 10 7 7 4 2 2 2 2 4 5 5 6 7 9 11 11 16 18 18 18 16 12 12 12 10 10 10 8 6 6 7 7 5 2 nan nan nan nan 2 2 9 26 26 37 37 64 64 159
11 6 0 nan nan nan nan nan 1 1 5 1 4 4 5 8 0 0 nan nan nan nan nan nan nan nan nan nan nan nan 1 3 3 3 4 6 7 7 6 5 5 4 3 3 3 3 4 6 6 8 10 12 15 15 17 22 22 19 17 15 15 14 13 13 13 11 8 5 6 6 8 8 3 3 nan nan nan nan 3 18 18 46 42 85 85 228
9 5 1 0 0 nan nan nan 0 0 nan nan 4 4 8 12 5 5 1 nan nan nan nan nan nan nan nan nan 0 0 1 2 2 2 3 4 5 5 5 3 3 3 4 4 4 4 5 7 7 10 16 19 20 20 23 25 25 24 21 17 17 16 16 16 16 15 12 9 6 6 8 11 9 9 3 nan nan nan nan 5 5 33 50 82 82 242
7 4 5 6 6 0 nan nan 1 1 4 3 2 2 4 nan 0 0 5 5 5 6 0 nan nan nan 0 6 6 6 0 nan 0 0 1 1 1 1 2 2 2 3 3 5 5 6 7 11 11 16 23 30 34 34 35 30 30 26 22 17 17 14 13 14 14 15 16 16 13 13 8 5 6 6 12 14 6 6 nan nan nan 5 30 68 68 164
10 6 2 11 11 5 0 nan 3 3 7 3 3 3 2 2 nan nan nan nan nan 2 nan nan nan nan 0 2 9 9 1 1 0 0 1 nan nan nan 0 1 1 2 4 5 5 7 9 12 12 16 21 27 34 34 34 31 31 26 18 12 12 8 6 7 7 12 15 18 17 17 13 9 6 6 6 9 13 13 10 3 3 nan 11 42 42 123
10 8 3 0 0 nan nan nan nan nan 9 4 4 4 2 1 nan nan nan nan nan nan nan nan nan nan nan 1 6 6 2 4 5 5 4 1 2 2 1 0 0 1 4 5 5 8 10 13 13 17 20 24 26 26 29 28 28 22 15 6 6 4 3 5 5 9 14 18 19 19 18 15 10 10 6 5 8 8 13 13 13 5 0 10 10 39
nan 0 0 nan nan nan nan 1 1 1 5 0 nan nan nan 0 2 2 0 nan nan nan nan nan nan nan nan nan 3 3 1 0 1 1 3 1 0 0 0 0 0 1 4 5 5 7 9 13 13 16 20 21 24 24 25 25 25 18 9 5 5 3 2 4 4 7 13 18 21 21 21 18 15 15 11 7 4 4 5 10 10 11 8 2 2 6
nan nan nan nan nan nan nan nan nan nan 0 nan nan nan nan 2 10 10 3 2 2 1 0 0 0 0 nan nan nan nan 0 nan nan nan 0 0 nan nan nan nan nan 0 2 4 4 5 10 13 13 18 20 21 22 22 22 17 17 11 6 5 5 4 4 5 5 9 14 19 24 24 23 22 17 17 14 11 8 8 4 4 4 6 11 11 11 6
nan nan nan nan nan nan nan nan nan nan nan nan 0 0 0 1 5 5 13 5 5 4 2 0 0 nan 0 nan nan nan nan nan 0 0 nan nan nan nan nan nan nan nan 0 0 0 1 8 14 14 19 21 21 20 20 16 10 10 7 7 6 6 6 7 7 7 11 18 24 25 25 25 20 17 17 15 14 12 12 8 5 5 4 5 12 12 15
nan nan nan nan nan nan nan nan nan nan 0 1 2 2 3 4 5 5 6 5 5 5 4 1 1 nan nan nan nan nan 0 nan nan nan nan nan 1 1 1 nan nan nan 0 nan nan 0 8 12 12 13 19 16 16 16 11 8 8 8 8 9 9 9 10 11 11 16 21 29 28 28 24 19 16 16 15 14 14 14 11 8 8 5 4 7 7 13
nan nan nan nan nan nan 0 1 1 1 3 4 7 7 8 9 10 10 10 13 13 10 7 4 4 0 nan nan nan nan nan nan nan nan nan nan 3 3 5 1 1 0 nan nan nan 2 10 12 12 11 8 7 5 5 4 5 5 8 10 12 12 13 14 16 16 21 28 33 29 29 21 17 17 17 16 14 15 15 14 11 11 7 5 5 5 7
nan nan nan nan nan nan 1 3 5 5 7 12 13 13 15 16 19 19 22 19 19 15 9 6 6 3 0 nan nan nan nan 0 0 0 nan nan nan nan 2 1 1 0 nan nan nan 4 9 9 9 7 4 4 5 5 3 5 5 9 12 15 15 18 17 20 20 26 33 37 29 29 21 17 19 19 16 15 15 15 14 13 13 9 6 4 4 5
0 nan nan 0 0 1 3 6 9 9 12 12 14 14 18 23 27 27 28 20 20 13 10 6 6 6 3 1 3 3 1 0 1 1 0 nan nan nan 5 3 3 0 nan 0 0 2 5 5 5 6 3 5 4 4 4 6 6 9 14 18 18 20 23 28 28 34 40 38 26 26 21 21 19 19 18 17 15 15 15 13 13 10 9 5 5 4
1 0 1 2 2 3 4 5 8 8 12 11 11 11 11 17 17 17 12 10 10 9 7 7 7 6 4 4 4 4 6 4 5 5 2 0 nan nan 5 3 3 0 1 3 3 4 5 8 8 13 6 6 5 5 5 6 6 10 15 21 21 24 26 33 33 37 39 31 23 23 24 23 23 23 20 20 18 18 17 15 15 13 9 7 7 6
nan 0 0 2 2 3 3 4 5 5 7 12 12 12 10 9 6 6 5 5 5 5 5 5 5 5 4 3 3 3 7 7 7 7 5 2 0 0 1 0 0 1 2 3 3 5 6 14 14 17 9 6 5 5 5 7 7 10 15 22 22 25 28 32 32 32 30 26 25 25 27 26 26 26 24 22 20 20 16 15 15 14 11 9 9 7
1 0 1 2 2 3 2 3 7 7 13 17 13 13 8 6 3 3 3 3 3 3 5 4 4 4 3 3 3 3 6 7 8 8 7 4 1 1 0 0 0 1 1 2 2 2 3 13 13 12 5 5 4 4 5 8 8 12 17 22 22 25 26 23 23 22 22 23 27 27 28 29 28 28 26 24 19 19 17 14 14 14 12 10 10 9
0 0 1 3 3 4 4 3 10 10 22 25 13 13 7 5 4 4 4 5 5 4 4 4 4 4 2 3 4 4 11 7 7 7 8 7 2 2 1 3 3 3 3 2 2 1 2 7 7 4 4 5 5 5 6 10 10 14 18 22 22 21 18 14 14 16 19 23 27 27 30 33 29 29 26 23 20 20 17 16 16 15 12 11 11 9
0 0 1 7 7 5 6 9 17 17 26 28 13 13 9 7 7 7 6 6 6 6 5 5 5 3 3 3 5 5 12 12 10 10 8 5 2 2 2 4 4 5 3 0 0 0 2 3 3 1 1 4 5 5 7 12 12 16 19 18 18 17 15 13 13 17 22 27 31 31 35 35 32 32 27 23 21 21 19 19 19 15 13 10 10 9
1 1 2 6 6 6 10 12 16 16 22 20 14 14 9 12 11 11 8 7 7 6 5 4 4 4 3 3 7 7 7 7 9 9 6 3 3 3 3 6 6 4 3 1 1 0 0 0 0 0 2 6 5 5 8 13 13 16 16 17 17 15 13 15 15 20 26 33 37 37 38 36 31 31 26 23 21 21 22 20 20 18 15 11 11 10
1 3 4 6 6 13 16 12 12 12 12 13 13 13 18 14 11 11 11 7 7 7 7 5 5 1 1 0 1 1 3 5 6 6 5 5 6 6 4 5 5 5 2 0 0 0 1 0 0 nan 0 4 6 6 9 16 16 17 15 13 13 12 14 17 17 23 29 34 38 38 38 35 30 30 26 24 23 23 22 21 21 18 15 10 10 9
1 2 2 4 4 20 12 8 10 10 8 9 12 12 14 16 12 12 6 7 7 6 3 1 1 0 0 0 0 0 1 2 5 5 6 7 6 6 4 4 4 5 3 0 0 0 0 nan nan nan 0 2 7 7 12 15 15 15 11 11 11 12 15 19 19 24 29 34 36 36 33 33 30 30 29 26 25 25 23 20 20 17 13 7 7 5
2 2 2 5 5 17 16 18 19 19 16 12 11 11 11 9 4 4 1 2 2 1 1 1 1 1 0 0 0 0 nan 3 5 5 7 9 8 8 5 4 4 5 3 1 1 0 0 nan nan nan nan 0 8 8 11 13 13 11 9 10 10 13 16 18 18 23 26 28 28 28 28 28 27 27 30 28 25 25 23 17 17 14 11 6 6 5
3 4 7 9 9 10 12 14 16 16 20 21 14 14 10 4 1 1 1 1 1 3 1 2 2 1 0 0 0 0 0 1 5 5 10 10 6 6 4 3 3 4 4 1 1 1 1 0 0 nan nan 0 5 5 10 11 11 8 8 10 10 13 13 15 15 17 19 19 21 21 20 24 28 28 29 27 26 26 22 17 17 14 9 6 6 3
2 3 3 4 4 5 7 9 11 11 14 19 24 24 11 3 1 1 1 2 2 4 1 2 2 1 1 0 0 0 0 1 7 7 10 10 3 3 3 4 4 6 5 2 2 2 4 1 1 0 nan 1 3 3 7 8 8 7 8 10 10 11 11 10 10 12 12 13 15 15 19 25 31 31 31 28 26 26 22 18 18 15 12 10 10 21
1 1 1 2 2 3 4 5 7 7 9 13 16 16 9 1 2 2 2 3 3 4 3 2 2 1 1 1 0 0 0 2 7 7 6 7 4 4 4 4 4 5 5 3 3 1 0 0 0 nan 0 1 2 2 4 7 7 6 8 8 8 7 7 7 7 8 9 9 12 12 16 25 30 30 30 27 25 25 26 23 23 17 18 24 24 39
nan 0 0 0 0 1 1 1 2 2 5 9 11 11 7 2 3 3 3 4 4 4 4 4 4 3 2 2 1 1 0 0 4 4 6 5 4 4 4 5 5 5 5 3 3 1 nan nan nan nan 0 2 1 1 0 3 3 3 5 8 8 5 5 4 4 6 6 8 11 11 16 22 25 25 27 29 31 31 28 29 29 27 35 40 40 45
nan nan nan nan nan 0 0 0 1 1 3 5 6 6 5 2 3 3 4 5 5 5 5 4 4 4 4 2 1 1 0 nan 2 2 6 9 6 6 6 5 5 6 7 3 3 2 nan nan nan nan 0 2 1 1 1 1 1 1 1 2 2 3 3 2 2 4 6 7 11 11 16 19 25 25 28 31 34 34 39 33 33 33 40 47 47 48
nan nan nan nan nan nan nan nan nan nan nan nan nan nan 0 1 2 2 2 4 4 5 5 5 5 4 4 5 5 5 2 1 6 6 13 8 11 11 11 6 6 5 7 9 9 9 3 1 1 0 0 1 1 1 1 2 2 3 3 1 1 0 1 3 3 5 6 11 17 17 20 27 31 31 33 43 51 51 56 46 46 37 32 32 32 36
nan nan nan nan nan nan nan nan nan nan nan nan nan nan nan 0 2 2 2 3 3 5 4 5 5 5 4 3 3 3 2 2 11 11 22 8 9 9 11 8 8 5 8 7 7 8 4 4 4 2 1 1 1 1 2 3 3 3 3 1 1 0 0 2 2 3 7 12 17 17 23 29 39 39 49 58 67 67 62 46 46 36 34 31 31 31
nan nan nan nan nan nan nan nan nan nan nan nan nan nan nan 0 1 1 3 3 3 4 5 5 5 5 5 2 3 3 2 1 12 12 18 9 8 8 12 9 9 6 5 5 5 6 4 4 4 4 1 1 1 1 1 2 2 3 2 1 1 0 0 1 1 3 6 11 13 13 19 26 50 50 71 69 52 52 39 26 26 29 32 36 36 32
nan nan nan nan nan nan nan nan 0 0 0 nan nan nan 0 0 1 1 3 4 4 4 4 4 4 5 4 3 4 4 4 2 11 11 17 8 13 13 12 10 10 8 7 7 7 6 4 5 5 7 3 2 0 0 0 1 1 2 1 2 2 1 0 1 1 5 7 11 14 14 19 32 54 54 70 49 19 19 8 12 12 19 27 36 36 38
nan nan nan nan nan nan nan nan 0 0 0 0 0 0 0 0 1 1 2 5 5 5 5 5 5 3 2 3 3 3 3 3 9 9 16 6 7 7 10 13 13 11 10 9 9 7 5 5 5 8 7 3 1 1 0 0 0 1 1 2 2 2 1 2 2 4 6 11 16 16 28 51 69 69 39 12 6 6 4 7 7 11 22 35 35 36
nan nan nan nan nan nan 0 nan nan nan nan 0 0 0 0 1 2 2 3 8 8 8 5 6 6 5 9 4 4 4 4 5 9 9 18 9 2 2 6 10 10 12 7 6 6 9 6 5 5 5 4 3 1 1 1 2 2 2 1 2 2 3 2 3 3 6 6 13 24 24 41 59 52 52 19 8 3 3 5 8 8 11 18 25 25 37
nan nan 0 nan nan nan nan 0 0 0 0 0 0 0 1 2 3 3 2 5 5 7 4 4 4 4 11 12 11 11 9 13 16 16 27 21 6 6 3 6 6 10 6 6 6 9 7 5 5 5 4 2 5 5 4 2 2 2 2 3 3 3 3 4 4 5 7 12 23 23 37 41 23 23 9 3 nan nan 1 4 4 10 20 25 25 36
nan 0 0 0 0 nan 0 0 0 0 0 1 2 2 2 3 4 4 3 3 3 3 5 5 5 3 5 13 16 16 12 13 19 19 24 17 10 10 5 3 3 5 9 10 10 6 5 5 5 4 4 3 2 2 2 2 2 2 2 3 3 2 3 5 5 7 10 15 22 22 24 20 13 13 9 2 0 0 1 5 5 9 17 27 27 39
0 0 0 0 0 nan 0 0 0 0 1 2 5 5 4 4 3 3 3 3 3 4 4 5 5 3 4 5 7 7 11 15 16 16 13 9 9 9 5 1 1 2 7 9 9 5 6 6 6 10 9 3 2 2 4 3 3 4 8 2 2 2 3 5 5 8 9 16 16 16 15 11 9 9 8 5 2 2 3 8 8 13 17 27 27 37
0 1 0 0 0 0 0 1 2 2 3 4 4 4 4 4 3 3 3 4 4 4 4 5 5 4 2 2 2 2 4 7 6 6 10 5 14 14 6 2 2 2 2 4 4 7 7 5 5 9 7 3 5 5 5 4 4 8 9 4 4 3 5 7 7 8 9 9 7 7 11 11 10 10 9 8 5 5 5 8 8 14 19 33 33 42
3 2 1 0 0 0 0 1 4 4 4 4 4 4 4 4 5 5 5 5 5 5 5 4 4 5 2 0 0 0 1 4 4 4 7 8 13 13 13 9 9 3 3 8 8 12 11 8 8 8 5 4 4 4 4 5 5 6 8 5 5 6 7 8 8 7 8 8 6 6 14 11 8 8 8 8 7 7 8 9 9 17 24 35 35 51
2 2 1 1 1 0 1 3 3 3 3 3 3 3 3 5 8 8 8 5 5 5 5 6 6 5 4 2 nan nan 1 2 4 4 5 7 16 16 19 19 19 14 9 8 8 11 11 12 12 6 4 4 5 5 5 5 5 5 5 7 7 7 4 5 5 7 10 6 7 7 11 9 8 8 6 6 7 7 10 13 13 19 26 37 37 56
3 3 2 1 1 2 3 2 2 2 2 2 3 3 3 5 7 7 7 7 7 7 6 5 5 5 5 3 1 1 0 0 2 2 5 8 14 14 16 12 12 8 5 5 5 5 9 11 11 5 5 4 5 5 5 5 5 5 4 8 8 9 8 7 7 8 7 6 6 6 7 9 7 7 5 5 6 6 8 10 10 13 24 40 40 62
3 3 2 1 1 2 2 2 2 2 2 2 2 2 3 4 6 6 7 7 7 6 5 5 5 5 4 3 2 2 1 0 1 1 3 7 14 14 14 11 11 9 11 10 10 6 5 9 9 9 7 6 5 5 5 4 4 5 7 11 11 10 10 11 11 9 7 5 5 5 7 7 6 6 5 4 5 5 7 9 9 11 20 37 37 60
3 3 3 2 2 2 5 3 2 2 2 2 3 3 3 4 4 4 7 7 7 6 5 6 6 5 5 4 3 3 2 2 2 2 1 5 8 8 14 14 14 9 7 13 13 14 10 8 8 9 8 10 5 5 5 6 6 5 5 11 11 7 7 8 8 8 6 7 5 5 7 8 5 5 3 4 5 5 8 10 10 15 20 34 34 57
4 4 3 3 3 3 3 3 3 3 3 4 3 3 3 4 4 4 5 6 6 6 7 6 6 5 5 5 3 3 3 5 4 4 4 5 6 6 8 11 11 17 14 12 12 16 17 14 14 14 11 11 9 9 7 8 8 7 7 8 8 8 6 7 7 6 7 7 6 6 8 9 5 5 4 4 5 5 7 13 13 19 23 38 38 50
5 5 4 3 3 4 4 4 3 3 5 4 4 4 3 4 5 5 4 5 5 6 7 5 5 7 5 5 5 5 6 5 6 6 7 5 6 6 8 8 8 7 14 16 16 22 18 20 20 22 18 13 11 11 11 11 11 9 7 7 7 5 7 6 6 5 6 8 11 11 12 7 3 3 3 4 4 4 5 9 9 14 19 39 39 48
4 4 5 4 4 4 4 4 4 4 5 4 4 4 4 5 12 12 5 6 6 5 6 5 5 6 5 4 6 6 9 9 5 5 6 7 8 8 9 13 13 14 13 20 20 17 15 23 23 23 15 16 11 11 10 11 11 8 6 6 6 5 5 6 6 5 5 6 16 16 14 5 5 5 5 4 5 5 5 6 6 9 14 27 27 34
3 4 4 5 5 5 5 5 4 4 4 6 5 5 4 4 4 4 5 5 5 5 6 6 6 8 9 7 5 5 9 8 6 6 6 7 9 9 11 12 12 18 17 18 18 16 14 19 19 24 20 16 15 15 13 9 9 9 7 6 6 5 4 7 7 6 4 6 14 14 14 8 6 6 7 7 4 4 4 5 5 6 8 16 16 23
4 5 4 5 5 6 5 5 5 5 5 5 5 5 4 4 4 4 4 5 5 6 4 3 3 7 6 5 5 5 8 8 6 6 9 8 8 8 8 12 12 15 12 13 13 13 14 11 11 10 12 20 19 19 11 9 9 8 7 6 6 4 3 6 6 5 7 6 7 7 12 8 6 6 7 7 6 6 4 4 4 3 5 9 9 17
CIN
nan nan nan nan nan nan nan nan nan nan nan nan nan nan nan nan nan nan -0 nan nan nan nan nan nan nan nan nan nan nan nan nan -0 -0 -0 -0 -0 -0 -0 -0 -0 -0 -0 nan nan nan nan -0 -0 -0 -0 -0 -0 -0 -0 -0 -0 -0 -0 -0 -0 -0 -0 -0 -0 -0 -0 -0 -0 -0 -0 -4 -12 -12 -22 -30 -37 -37 -40 nan nan nan nan nan nan -59
nan nan nan nan nan nan nan nan nan nan nan -0 nan nan nan nan nan nan -0 -0 -0 nan nan nan nan nan nan nan nan nan -0 -0 -0 -0 -0 -0 -0 -0 -0 -0 -0 -0 -0 nan nan nan nan -0 -0 -0 -0 -0 -0 -0 -0 -0 -0 -0 -0 -0 -0 -0 -0 -0 -0 -0 -0 -0 -0 -0 -0 -8 -21 -21 nan nan -26 -26 -27 -27 -27 -29 -85 -73 -73 -46
nan nan nan nan nan nan nan nan nan nan nan -0 nan nan nan nan nan nan nan nan nan -0 nan nan nan nan nan nan nan nan -0 -0 -0 -0 -0 -0 -0 -0 -0 -0 -0 -0 -0 -0 -0 -0 -0 -0 -0 -0 -0 -0 -0 -0 -0 -0 -0 -0 -0 -0 -0 -0 -0 -0 -0 -0 -0 -0 -0 -0 -0 nan nan nan nan -22 -18 -18 -18 -19 -19 -22 -28 -46 -46 -0
-0 nan nan nan nan nan nan nan nan nan -0 -0 nan nan nan -0 -0 -0 nan nan nan -0 nan nan nan nan nan nan nan nan -0 -0 -0 -0 -0 -0 -0 -0 -0 -0 -0 -0 -0 -0 -0 -0 -0 -0 -0 -0 -0 -0 -0 -0 -0 -0 -0 -0 -0 -0 -0 -0 -0 -0 -0 -0 -0 -0 -0 -0 -0 nan nan nan nan -17 -16 -16 -15 -15 -15 -18 -18 -18 -18 -14
-0 -0 nan nan nan nan nan nan nan nan -0 nan nan nan nan -0 nan nan nan nan nan -0 nan nan nan nan nan nan nan nan -0 -0 -0 -0 -0 -0 -0 -0 -0 -0 -0 -0 -0 -0 -0 -0 -0 -0 -0 -0 -0 -0 -0 -0 -0 -0 -0 -0 -0 -0 -0 -0 -0 -0 -0 -0 -0 -0 -0 -0 -0 -0 nan nan nan nan -14 -14 -12 -11 -11 -12 -12 -9 -9 -5
-0 -0 -0 nan nan nan nan nan -0 -0 -0 -0 -0 -0 -0 -0 -0 -0 nan nan nan nan nan nan nan nan nan nan nan nan -0 -0 -0 -0 -0 -0 -0 -0 -0 -0 -0 -0 -0 -0 -0 -0 -0 -0 -0 -0 -0 -0 -0 -0 -0 -0 -0 -0 -0 -0 -0 -0 -0 -0 -0 -0 -0 -0 -0 -0 -0 -0 -0 -0 nan nan nan nan -10 -8 -8 -7 -8 -5 -5 -2
-0 -0 -0 -0 -0 nan nan nan -0 -0 nan nan -0 -0 -0 -0 -0 -0 -0 nan nan nan nan nan nan nan nan nan -0 -0 -0 -0 -0 -0 -0 -0 -0 -0 -0 -0 -0 -0 -0 -0 -0 -0 -0 -0 -0 -0 -0 -0 -0 -0 -0 -0 -0 -0 -0 -0 -0 -0 -0 -0 -0 -0 -0 -0 -0 -0 -0 -0 -0 -0 -0 nan nan nan nan -6 -6 -5 -6 -4 -4 -3
-0 -0 -0 -0 -0 -0 nan nan -0 -0 -0 -0 -0 -0 -0 nan -0 -0 -0 -0 -0 -0 -0 nan nan nan -0 -3 -0 -0 -0 nan -0 -0 -0 -0 -0 -0 -0 -0 -0 -0 -0 -0 -0 -0 -0 -0 -0 -0 -0 -0 -0 -0 -0 -0 -0 -0 -0 -0 -0 -0 -0 -0 -0 -0 -0 -0 -0 -0 -0 -0 -0 -0 -0 -0 -0 -0 nan nan nan -3 -2 -2 -2 -1
-0 -0 -0 -0 -0 -0 -0 nan -0 -0 -0 -0 -0 -0 -0 -0 nan nan nan nan nan -0 nan nan nan nan -0 -3 -4 -4 -0 -0 -0 -0 -0 nan nan nan -0 -0 -0 -0 -0 -0 -0 -0 -0 -0 -0 -0 -0 -0 -0 -0 -0 -0 -0 -0 -0 -0 -0 -0 -0 -0 -0 -0 -0 -0 -0 -0 -0 -0 -0 -0 -0 -0 -0 -0 -0 -0 -0 nan -2 -2 -2 -1
-0 -0 -0 -0 -0 nan nan nan nan nan -0 -0 -0 -0 -0 -0 nan nan nan nan nan nan nan nan nan nan nan -5 -6 -6 -0 -0 -0 -0 -0 -0 -0 -0 -0 -0 -0 -0 -0 -0 -0 -0 -0 -0 -0 -0 -0 -0 -0 -0 -0 -0 -0 -0 -0 -0 -0 -0 -0 -0 -0 -0 -0 -0 -0 -0 -0 -0 -0 -0 -0 -0 -0 -0 -0 -0 -0 -0 -0 -2 -2 -2
nan -0 -0 nan nan nan nan -0 -0 -0 -0 -0 nan nan nan -0 -0 -0 -0 nan nan nan nan nan nan nan nan nan -5 -5 -0 -0 -0 -0 -0 -0 -0 -0 -0 -0 -0 -0 -0 -0 -0 -0 -0 -0 -0 -0 -0 -0 -0 -0 -0 -0 -0 -0 -0 -0 -0 -0 -0 -0 -0 -0 -0 -0 -0 -0 -0 -0 -0 -0 -0 -0 -0 -0 -0 -0 -0 -0 -0 -0 -0 -1
nan nan nan nan nan nan nan nan nan nan -0 nan nan nan nan -0 -0 -0 -0 -0 -0 -0 -0 -0 -0 -0 nan nan nan nan -0 nan nan nan -0 -0 nan nan nan nan nan -0 -0 -0 -0 -0 -0 -0 -0 -0 -0 -0 -0 -0 -0 -0 -0 -0 -0 -0 -0 -0 -0 -0 -0 -0 -0 -0 -0 -0 -0 -0 -0 -0 -0 -0 -0 -0 -0 -0 -0 -0 -0 -0 -0 -0
nan nan nan nan nan nan nan nan nan nan nan nan -0 -0 -0 -0 -0 -0 -0 -0 -0 -0 -0 -0 -0 nan -0 nan nan nan nan nan -0 -0 nan nan nan nan nan nan nan nan -0 -0 -0 -0 -0 -0 -0 -0 -0 -0 -0 -0 -0 -0 -0 -0 -0 -0 -0 -0 -0 -0 -0 -0 -0 -0 -0 -0 -0 -0 -0 -0 -0 -0 -0 -0 -0 -0 -0 -0 -0 -0 -0 -0
nan nan nan nan nan nan nan nan nan nan -0 -0 -0 -0 -0 -0 -0 -0 -0 -0 -0 -0 -0 -0 -0 nan nan nan nan nan -0 nan nan nan nan nan -0 -0 -0 nan nan nan -0 nan nan -0 -0 -0 -0 -0 -0 -0 -0 -0 -0 -0 -0 -0 -0 -0 -0 -0 -0 -0 -0 -0 -0 -0 -0 -0 -0 -0 -0 -0 -0 -0 -0 -0 -0 -0 -0 -0 -0 -0 -0 -0
nan nan nan nan nan nan -0 -0 -0 -0 -0 -0 -0 -0 -0 -0 -0 -0 -0 -0 -0 -0 -0 -0 -0 -0 nan nan nan nan nan nan nan nan nan nan -0 -0 -0 -0 -0 -0 nan nan nan -0 -0 -0 -0 -0 -0 -0 -0 -0 -0 -0 -0 -0 -0 -0 -0 -0 -0 -0 -0 -0 -0 -0 -0 -0 -0 -0 -0 -0 -0 -0 -0 -0 -0 -0 -0 -0 -0 -0 -0 -0
nan nan nan nan nan nan -0 -0 -0 -0 -0 -0 -0 -0 -0 -0 -0 -0 -0 -0 -0 -0 -0 -0 -0 -0 -0 nan nan nan nan -0 -0 -0 nan nan nan nan -0 -0 -0 -0 nan nan nan -0 -5 -0 -0 -0 -0 -0 -0 -0 -0 -0 -0 -0 -0 -0 -0 -0 -0 -0 -0 -0 -0 -0 -0 -0 -0 -0 -0 -0 -0 -0 -0 -0 -0 -0 -0 -0 -0 -0 -0 -0
-0 nan nan -0 -0 -0 -0 -0 -0 -0 -0 -0 -0 -0 -0 -0 -0 -0 -0 -0 -0 -0 -0 -0 -0 -0 -0 -0 -0 -0 -0 -0 -0 -0 -0 nan nan nan -0 -0 -0 -0 nan -0 -0 -0 -0 -0 -0 -0 -0 -0 -0 -0 -0 -0 -0 -0 -0 -0 -0 -0 -0 -0 -0 -0 -0 -0 -0 -0 -0 -0 -0 -0 -0 -0 -0 -0 -0 -0 -0 -0 -0 -0 -0 -0
-0 -0 -0 -0 -0 -0 -0 -0 -0 -0 -0 -0 -0 -0 -0 -0 -0 -0 -0 -0 -0 -0 -0 -0 -0 -0 -0 -0 -0 -0 -0 -0 -0 -0 -0 -0 nan nan -0 -0 -0 -0 -0 -0 -0 -0 -0 -0 -0 -1 -0 -0 -0 -0 -0 -0 -0 -0 -0 -0 -0 -0 -0 -0 -0 -0 -0 -0 -0 -0 -0 -0 -0 -0 -0 -0 -0 -0 -0 -0 -0 -0 -0 -0 -0 -0
nan -0 -0 -0 -0 -0 -0 -0 -0 -0 -0 -0 -0 -0 -0 -0 -0 -0 -0 -0 -0 -0 -0 -0 -0 -0 -0 -0 -0 -0 -0 -0 -0 -0 -0 -0 -0 -0 -0 -0 -0 -0 -0 -0 -0 -0 -0 -5 -5 -2 -0 -0 -0 -0 -0 -0 -0 -0 -0 -0 -0 -0 -0 -0 -0 -0 -0 -0 -0 -0 -0 -0 -0 -0 -0 -0 -0 -0 -0 -0 -0 -0 -0 -0 -0 -0
-0 -0 -0 -0 -0 -0 -0 -0 -0 -0 -0 -0 -0 -0 -0 -0 -0 -0 -0 -0 -0 -0 -0 -0 -0 -0 -0 -0 -0 -0 -0 -0 -0 -0 -0 -0 -0 -0 -0 -0 -0 -0 -0 -0 -0 -0 -0 -7 -7 -4 -0 -0 -0 -0 -0 -0 -0 -0 -0 -0 -0 -0 -0 -0 -0 -0 -0 -0 -0 -0 -0 -0 -0 -0 -0 -0 -0 -0 -0 -0 -0 -0 -0 -0 -0 -0
-0 -0 -0 -0 -0 -0 -0 -0 -0 -0 -0 -0 -0 -0 -0 -0 -0 -0 -0 -0 -0 -0 -0 -0 -0 -0 -0 -0 -0 -0 -0 -0 -0 -0 -0 -0 -0 -0 -0 -0 -0 -0 -0 -0 -0 -0 -0 -1 -1 -0 -0 -0 -0 -0 -0 -0 -0 -0 -0 -0 -0 -0 -0 -0 -0 -0 -0 -0 -0 -0 -0 -0 -0 -0 -0 -0 -0 -0 -0 -0 -0 -0 -0 -0 -0 -0
-0 -0 -0 -0 -0 -0 -0 -0 -0 -0 -0 -0 -0 -0 -0 -0 -0 -0 -0 -0 -0 -0 -0 -0 -0 -0 -0 -0 -0 -0 -0 -0 -0 -0 -0 -0 -0 -0 -0 -0 -0 -0 -0 -0 -0 -0 -0 -0 -0 -0 -0 -0 -0 -0 -0 -0 -0 -0 -0 -0 -0 -0 -0 -0 -0 -0 -0 -0 -0 -0 -0 -0 -0 -0 -0 -0 -0 -0 -0 -0 -0 -0 -0 -0 -0 -0
-0 -0 -0 -0 -0 -0 -0 -0 -0 -0 -0 -0 -0 -0 -0 -0 -0 -0 -0 -0 -0 -0 -0 -0 -0 -0 -0 -0 -0 -0 -0 -0 -0 -0 -0 -0 -0 -0 -0 -0 -0 -0 -0 -0 -0 -0 -0 -0 -0 -0 -0 -0 -0 -0 -0 -0 -0 -0 -0 -0 -0 -0 -0 -0 -0 -0 -0 -0 -0 -0 -0 -0 -0 -0 -0 -0 -0 -0 -0 -0 -0 -0 -0 -0 -0 -0
-0 -0 -0 -0 -0 -0 -0 -0 -0 -0 -0 -0 -0 -0 -0 -0 -0 -0 -0 -0 -0 -0 -0 -0 -0 -0 -0 -0 -0 -0 -0 -0 -0 -0 -0 -0 -0 -0 -0 -0 -0 -0 -0 -0 -0 -0 -0 -0 -0 nan -0 -0 -0 -0 -0 -0 -0 -0 -0 -0 -0 -0 -0 -0 -0 -0 -0 -0 -0 -0 -0 -0 -0 -0 -0 -0 -0 -0 -0 -0 -0 -0 -0 -0 -0 -0
-0 -0 -0 -0 -0 -0 -0 -0 -0 -0 -0 -0 -0 -0 -0 -0 -0 -0 -0 -0 -0 -0 -0 -0 -0 -0 -0 -0 -0 -0 -0 -0 -0 -0 -0 -0 -0 -0 -0 -0 -0 -0 -0 -0 -0 -0 -0 nan nan nan -0 -0 -0 -0 -0 -0 -0 -0 -0 -0 -0 -0 -0 -0 -0 -0 -0 -0 -0 -0 -0 -0 -0 -0 -0 -0 -0 -0 -0 -0 -0 -0 -0 -0 -0 -0
-0 -0 -0 -0 -0 -0 -0 -0 -0 -0 -0 -0 -0 -0 -0 -0 -0 -0 -0 -0 -0 -0 -0 -0 -0 -0 -0 -0 -0 -0 nan -0 -0 -0 -0 -0 -0 -0 -0 -0 -0 -0 -0 -0 -0 -0 -0 nan nan nan nan -0 -0 -0 -0 -0 -0 -0 -0 -0 -0 -0 -0 -0 -0 -0 -0 -0 -0 -0 -0 -0 -0 -0 -0 -0 -0 -0 -0 -0 -0 -0 -0 -0 -0 -0
-0 -0 -0 -0 -0 -0 -0 -0 -0 -0 -0 -0 -0 -0 -0 -0 -0 -0 -0 -0 -0 -0 -0 -0 -0 -0 -0 -0 -0 -0 -0 -0 -0 -0 -0 -0 -0 -0 -0 -0 -0 -0 -0 -0 -0 -0 -0 -0 -0 nan nan -0 -0 -0 -0 -0 -0 -0 -0 -0 -0 -0 -0 -0 -0 -0 -0 -0 -0 -0 -0 -0 -0 -0 -0 -0 -0 -0 -0 -0 -0 -0 -0 -0 -0 -1
-0 -0 -0 -0 -0 -0 -0 -0 -0 -0 -0 -0 -0 -0 -0 -0 -0 -0 -0 -0 -0 -0 -0 -0 -0 -0 -0 -0 -0 -0 -0 -0 -0 -0 -0 -0 -0 -0 -0 -0 -0 -0 -0 -0 -0 -0 -0 -0 -0 -0 nan -0 -0 -0 -0 -0 -0 -0 -0 -0 -0 -0 -0 -0 -0 -0 -0 -0 -0 -0 -0 -0 -0 -0 -0 -0 -0 -0 -0 -0 -0 -0 -0 -0 -0 -0
-0 -0 -0 -0 -0 -0 -0 -0 -0 -0 -0 -0 -0 -0 -0 -0 -0 -0 -0 -0 -0 -0 -0 -0 -0 -0 -0 -0 -0 -0 -0 -0 -0 -0 -0 -0 -0 -0 -0 -0 -0 -0 -0 -0 -0 -0 -0 -0 -0 nan -0 -0 -0 -0 -0 -0 -0 -0 -0 -0 -0 -0 -0 -0 -0 -0 -0 -0 -0 -0 -0 -0 -0 -0 -0 -0 -0 -0 -0 -0 -0 -0 -0 -0 -0 -0
nan -0 -0 -0 -0 -0 -0 -0 -0 -0 -0 -0 -0 -0 -0 -0 -0 -0 -0 -0 -0 -0 -0 -0 -0 -0 -0 -0 -0 -0 -0 -0 -0 -0 -0 -0 -0 -0 -0 -0 -0 -0 -0 -0 -0 -0 nan nan nan nan -0 -0 -0 -0 -0 -0 -0 -0 -0 -0 -0 -0 -0 -0 -0 -0 -0 -0 -0 -0 -0 -0 -0 -0 -0 -0 -0 -0 -0 -0 -0 -0 -0 -0 -0 -0
nan nan nan nan nan -0 -0 -0 -0 -0 -0 -0 -0 -0 -0 -0 -0 -0 -0 -0 -0 -0 -0 -0 -0 -0 -0 -0 -0 -0 -0 nan -0 -0 -0 -0 -0 -0 -0 -0 -0 -0 -0 -0 -0 -0 nan nan nan nan -0 -0 -0 -0 -0 -0 -0 -0 -0 -0 -0 -0 -0 -0 -0 -0 -0 -0 -0 -0 -0 -0 -0 -0 -0 -0 -0 -0 -0 -0 -0 -0 -0 -0 -0 -0
nan nan nan nan nan nan nan nan nan nan nan nan nan nan -0 -0 -0 -0 -0 -0 -0 -0 -0 -0 -0 -0 -0 -0 -0 -0 -0 -0 -0 -0 -0 -0 -0 -0 -0 -0 -0 -0 -0 -0 -0 -0 -0 -0 -0 -0 -0 -0 -0 -0 -0 -0 -0 -0 -0 -0 -0 -0 -0 -0 -0 -0 -0 -0 -0 -0 -0 -0 -0 -0 -0 -0 -0 -0 -0 -0 -0 -0 -0 -0 -0 -0
nan nan nan nan nan nan nan nan nan nan nan nan nan nan nan -0 -0 -0 -0 -0 -0 -0 -0 -0 -0 -0 -0 -0 -0 -0 -0 -0 -0 -0 -0 -0 -0 -0 -0 -0 -0 -0 -0 -0 -0 -0 -0 -0 -0 -0 -0 -0 -0 -0 -0 -0 -0 -0 -0 -0 -0 -0 -0 -0 -0 -0 -0 -0 -0 -0 -0 -0 -0 -0 -0 -0 -0 -0 -0 -0 -0 -0 -0 -0 -0 -0
nan nan nan nan nan nan nan nan nan nan nan nan nan nan nan -0 -0 -0 -0 -0 -0 -0 -0 -0 -0 -0 -0 -0 -0 -0 -0 -0 -0 -0 -0 -0 -0 -0 -0 -0 -0 -0 -0 -0 -0 -0 -0 -0 -0 -0 -0 -0 -0 -0 -0 -0 -0 -0 -0 -0 -0 -0 -0 -0 -0 -0 -0 -0 -0 -0 -0 -0 -0 -0 -0 -0 -0 -0 -0 -0 -0 -0 -0 -0 -0 -0
nan nan nan nan nan nan nan nan -0 -0 -0 nan nan nan -0 -0 -0 -0 -0 -0 -0 -0 -0 -0 -0 -0 -0 -0 -0 -0 -0 -0 -0 -0 -0 -0 -0 -0 -0 -0 -0 -0 -0 -0 -0 -0 -0 -0 -0 -0 -0 -0 -0 -0 -0 -0 -0 -0 -0 -0 -0 -0 -0 -0 -0 -0 -0 -0 -0 -0 -0 -1 -1 -1 -0 -0 -0 -0 -0 -0 -0 -0 -0 -0 -0 -0
nan nan nan nan nan nan nan nan -0 -0 -0 -0 -0 -0 -0 -0 -0 -0 -0 -0 -0 -0 -0 -0 -0 -0 -0 -0 -0 -0 -0 -0 -0 -0 -0 -0 -0 -0 -0 -0 -0 -0 -0 -0 -0 -0 -0 -0 -0 -0 -0 -0 -0 -0 -0 -0 -0 -0 -0 -0 -0 -0 -0 -0 -0 -0 -0 -0 -0 -0 -0 -1 -0 -0 -0 -0 -0 -0 -0 -0 -0 -0 -0 -0 -0 -0
nan nan nan nan nan nan -0 nan nan nan nan -0 -0 -0 -0 -0 -0 -0 -0 -0 -0 -0 -0 -0 -0 -0 -0 -0 -0 -0 -0 -0 -0 -0 -0 -0 -1 -1 -0 -0 -0 -0 -0 -0 -0 -0 -0 -0 -0 -0 -0 -0 -0 -0 -0 -0 -0 -0 -0 -0 -0 -0 -0 -0 -0 -0 -1 -0 -0 -0 -0 -1 -0 -0 -0 -0 -0 -0 -0 -0 -0 -0 -0 -0 -0 -0
nan nan -0 nan nan nan nan -0 -0 -0 -0 -0 -0 -0 -0 -0 -0 -0 -0 -0 -0 -0 -0 -0 -0 -0 -0 -0 -0 -0 -0 -0 -0 -0 -0 -0 -0 -0 -0 -0 -0 -0 -0 -0 -0 -0 -0 -0 -0 -0 -0 -0 -0 -0 -0 -0 -0 -0 -0 -0 -0 -0 -0 -0 -0 -0 -0 -1 -0 -0 -0 -0 -0 -0 -0 -2 nan nan -1 -0 -0 -0 -0 -0 -0 -0
nan -0 -0 -0 -0 nan -0 -0 -0 -0 -0 -0 -0 -0 -0 -0 -0 -0 -0 -0 -0 -0 -0 -0 -0 -0 -3 -5 -0 -0 -0 -3 -2 -2 -1 -3 -0 -0 -0 -0 -0 -0 -0 -0 -0 -0 -0 -0 -0 -0 -0 -0 -0 -0 -0 -0 -0 -0 -0 -0 -0 -0 -0 -0 -0 -0 -0 -2 -1 -1 -0 -0 -0 -0 -0 -7 -5 -5 -2 -0 -0 -0 -0 -0 -0 -0
-0 -0 -0 -0 -0 nan -0 -0 -0 -0 -0 -0 -0 -0 -0 -0 -0 -0 -0 -0 -0 -0 -0 -0 -0 -0 -0 -0 -0 -0 -0 -8 -2 -2 -7 -10 -5 -5 -0 -0 -0 -0 -0 -0 -0 -0 -0 -0 -0 -0 -0 -0 -0 -0 -0 -0 -0 -0 -0 -0 -0 -0 -0 -0 -0 -0 -1 -2 -2 -2 -0 -0 -0 -0 -0 -4 -5 -5 -2 -0 -0 -0 -0 -0 -0 -0
-0 -0 -0 -0 -0 -0 -0 -0 -0 -0 -0 -0 -0 -0 -0 -0 -0 -0 -0 -0 -0 -0 -0 -0 -0 -0 -0 -0 -0 -0 -0 -7 -2 -2 -12 -17 -6 -6 -2 -0 -0 -0 -0 -0 -0 -0 -0 -0 -0 -0 -0 -0 -0 -0 -0 -0 -0 -0 -0 -0 -0 -0 -0 -0 -0 -0 -4 -5 -4 -4 -0 -0 -0 -0 -0 -0 -4 -4 -4 -1 -1 -0 -0 -0 -0 -0
-0 -0 -0 -0 -0 -0 -0 -0 -0 -0 -0 -0 -0 -0 -0 -0 -0 -0 -0 -0 -0 -0 -0 -0 -0 -0 -0 -0 -0 -0 -0 -0 -12 -12 -17 -20 -10 -10 -2 -0 -0 -0 -0 -0 -0 -0 -0 -0 -0 -0 -0 -0 -0 -0 -0 -0 -0 -0 -0 -0 -0 -0 -0 -0 -0 -0 -4 -4 -1 -1 -0 -0 -0 -0 -0 -0 -0 -0 -1 -2 -2 -0 -0 -0 -0 -0
-0 -0 -0 -0 -0 -0 -0 -0 -0 -0 -0 -0 -0 -0 -0 -0 -0 -0 -0 -0 -0 -0 -0 -0 -0 -0 -0 -0 nan nan -0 -7 -0 -0 -5 -18 -12 -12 -1 -0 -0 -0 -0 -0 -0 -0 -0 -0 -0 -0 -0 -0 -0 -0 -0 -0 -0 -0 -0 -0 -0 -0 -1 -0 -0 -0 -0 -1 -0 -0 -0 -0 -0 -0 -0 -0 -0 -0 -0 -0 -0 -0 -0 -0 -0 -0
-0 -0 -0 -0 -0 -0 -0 -0 -0 -0 -0 -0 -0 -0 -0 -0 -0 -0 -0 -0 -0 -0 -0 -0 -0 -0 -0 -0 -0 -0 -0 -0 -0 -0 -0 -2 -14 -14 -9 -5 -5 -4 -3 -1 -1 -0 -0 -0 -0 -0 -0 -0 -0 -0 -0 -0 -0 -0 -0 -0 -0 -0 -0 -0 -0 -0 -1 -1 -0 -0 -0 -0 -0 -0 -0 -0 -0 -0 -0 -1 -1 -1 -0 -0 -0 -0
-0 -0 -0 -0 -0 -0 -0 -0 -0 -0 -0 -0 -0 -0 -0 -0 -0 -0 -0 -0 -0 -0 -0 -0 -0 -0 -0 -0 -0 -0 -0 -0 -0 -0 -2 -1 -3 -3 -12 -9 -9 -5 -2 -1 -1 -1 -0 -0 -0 -0 -0 -0 -0 -0 -0 -0 -0 -0 -0 -0 -0 -0 -1 -1 -1 -1 -0 -0 -1 -1 -1 -3 -1 -1 -0 -0 -0 -0 -0 -1 -1 -2 -1 -0 -0 -0
-0 -0 -0 -0 -0 -0 -0 -0 -0 -0 -0 -0 -0 -0 -0 -0 -0 -0 -0 -0 -0 -0 -0 -0 -0 -0 -0 -0 -0 -0 -0 -0 -0 -0 -0 -0 -2 -2 -3 -4 -4 -4 -3 -0 -0 -0 -0 -0 -0 -0 -0 -0 -0 -0 -0 -0 -0 -0 -0 -0 -0 -1 -2 -0 -0 -0 -1 -0 -0 -0 -0 -1 -1 -1 -0 -0 -0 -0 -0 -1 -1 -2 -2 -1 -1 -0
-0 -0 -0 -0 -0 -0 -0 -0 -0 -0 -0 -0 -0 -0 -0 -0 -0 -0 -0 -0 -0 -0 -0 -0 -0 -0 -0 -0 -0 -0 -0 -0 -0 -0 -0 -0 -0 -0 -0 -0 -0 -0 -0 -0 -0 -0 -0 -1 -1 -1 -0 -0 -0 -0 -0 -0 -0 -0 -0 -0 -0 -1 -0 -0 -0 -0 -2 -0 -0 -0 -1 -1 -0 -0 -0 -0 -0 -0 -0 -0 -0 -2 -2 -1 -1 -0
-0 -0 -0 -0 -0 -0 -0 -0 -0 -0 -0 -0 -0 -0 -0 -0 -0 -0 -0 -0 -0 -0 -0 -0 -0 -0 -0 -0 -0 -0 -0 -0 -0 -0 -0 -0 -0 -0 -0 -0 -0 -0 -0 -0 -0 -0 -0 -3 -3 -2 -0 -0 -0 -0 -0 -0 -0 -0 -1 -1 -1 -0 -0 -0 -0 -0 -3 -2 -2 -2 -3 -2 -1 -1 -1 -0 -0 -0 -0 -0 -0 -2 -4 -1 -1 -0
-0 -0 -0 -0 -0 -0 -0 -0 -0 -0 -0 -0 -0 -0 -0 -0 -0 -0 -0 -0 -0 -0 -0 -0 -0 -0 -0 -0 -0 -0 -0 -0 -0 -0 -0 -0 -0 -0 -0 -0 -0 -0 -0 -0 -0 -0 -0 -5 -5 -0 -0 -0 -0 -0 -0 -0 -0 -0 -1 -0 -0 -0 -0 -0 -0 -0 -0 -3 -3 -3 -3 -2 -0 -0 -1 -1 -0 -0 -0 -0 -0 -2 -5 -3 -3 -2
-0 -0 -0 -0 -0 -0 -0 -0 -0 -0 -0 -0 -0 -0 -0 -0 -0 -0 -0 -0 -0 -0 -0 -0 -0 -0 -0 -0 -0 -0 -0 -0 -0 -0 -0 -0 -0 -0 -0 -0 -0 -0 -0 -0 -0 -0 -0 -5 -5 -0 -0 -0 -0 -0 -0 -0 -0 -0 -0 -0 -0 -0 -1 -0 -0 -0 -2 -1 -3 -3 -3 -2 -2 -2 -1 -0 -1 -1 -1 -0 -0 -0 -5 -6 -6 -4
-0 -0 -0 -0 -0 -0 -0 -0 -0 -0 -0 -0 -0 -0 -0 -0 -0 -0 -0 -0 -0 -0 -0 -0 -0 -0 -0 -0 -0 -0 -0 -0 -0 -0 -0 -0 -0 -0 -0 -0 -0 -0 -0 -0 -0 -0 -0 -0 -0 -0 -0 -0 -0 -0 -0 -0 -0 -0 -0 -0 -0 -0 -3 -0 -0 -0 -0 -0 -2 -2 -3 -2 -1 -1 -1 -0 -0 -0 -0 -0 -0 -2 -3 -5 -5 -3
Wind_Speed
5 6 6 9 9 8 7 10 10 10 9 9 9 9 9 10 9 9 11 11 11 11 11 11 11 12 13 14 16 17 18 20 22 23 24 24 24 23 22 21 21 21 22 23 23 23 23 23 23 22 22 22 21 20 20 19 18 18 18 19 20 20 21 21 21 21 22 23 24 25 25 24 24 24 23 22 22 22 24 25 26 27 27 26 27 28
5 5 6 8 9 8 6 9 10 10 10 10 9 10 10 11 10 8 8 10 11 11 11 11 12 12 13 13 15 17 18 20 22 23 24 24 23 22 21 21 21 21 22 23 23 24 23 23 23 23 22 22 21 21 20 19 18 17 17 18 19 20 21 21 21 21 21 22 23 24 24 24 23 22 22 22 22 22 23 23 24 25 25 25 26 27
5 5 5 7 8 8 6 9 9 10 10 10 10 11 12 12 10 8 8 9 9 10 10 11 11 12 13 12 14 17 19 21 22 23 23 22 22 21 21 20 21 22 23 23 24 24 23 23 23 23 22 22 22 21 20 19 17 16 16 17 18 19 20 21 21 21 21 21 21 22 23 22 22 22 22 22 22 22 22 22 23 23 23 24 25 27
5 5 6 6 6 6 7 8 8 8 9 9 10 11 12 10 9 8 8 9 9 10 10 11 11 11 11 11 13 16 19 21 22 22 22 21 21 20 20 20 21 22 23 24 24 24 24 23 23 23 23 22 22 21 20 19 17 17 17 17 18 19 20 20 21 21 21 21 20 20 21 21 22 22 22 22 22 22 22 22 23 23 24 25 26 28
5 5 6 5 5 5 6 7 7 7 7 8 9 10 10 9 8 8 8 9 10 10 9 10 10 10 10 10 12 15 19 21 22 22 21 21 20 20 20 21 22 23 23 24 24 24 24 23 23 23 23 22 22 21 20 18 17 17 17 18 19 19 20 20 20 21 21 21 20 20 20 20 21 22 22 22 22 22 22 23 23 24 24 25 27 29
5 5 5 5 4 4 5 6 6 7 7 7 8 8 8 7 7 8 8 9 9 9 9 9 9 10 10 10 12 16 18 20 21 21 20 20 20 20 20 21 22 23 23 24 24 23 23 23 23 23 22 22 21 20 19 18 17 18 18 19 19 20 21 21 21 21 21 20 20 20 20 19 20 20 21 22 22 22 23 23 24 24 25 26 27 29
4 4 5 4 4 4 4 5 6 6 7 7 7 7 7 7 7 8 8 9 9 9 9 8 9 9 9 10 12 15 16 17 18 18 18 19 19 20 21 22 23 23 23 23 23 23 23 23 22 22 22 21 21 20 19 18 18 18 19 20 20 21 22 22 23 22 22 21 20 19 19 19 19 19 20 20 21 22 23 24 25 25 26 26 27 29
5 5 5 4 4 4 4 4 5 6 7 7 7 7 7 7 7 7 9 9 9 8 8 8 8 8 8 10 11 12 12 13 14 14 15 16 17 18 20 21 22 23 23 23 23 23 22 22 22 21 21 21 20 20 19 18 18 19 19 21 22 22 23 24 24 24 24 22 21 20 19 19 19 19 19 19 19 20 22 23 25 26 27 27 27 28
6 6 5 5 5 5 4 4 5 6 7 7 7 7 8 8 8 8 8 8 8 8 8 9 9 9 9 9 9 10 11 11 11 11 12 12 14 16 18 20 21 22 22 22 22 22 22 21 21 21 21 20 20 20 19 19 19 19 20 21 22 23 24 24 25 25 25 24 23 21 20 19 18 18 19 19 18 18 19 21 23 25 27 27 27 27
6 6 5 5 4 4 4 5 5 6 7 7 6 6 7 8 9 9 9 8 8 7 7 8 9 10 9 9 9 9 10 11 11 12 13 14 15 17 18 18 18 19 21 21 21 21 21 21 20 20 20 20 20 20 19 19 19 20 21 22 23 24 24 24 25 25 26 25 24 23 21 20 19 19 19 19 18 18 18 19 20 23 25 26 27 27
5 5 5 5 4 4 4 5 5 5 7 7 6 6 6 7 8 9 10 10 9 8 8 8 9 9 10 9 9 9 9 9 10 11 13 14 16 18 18 17 17 18 19 20 20 20 20 20 20 20 20 20 20 19 19 20 20 21 22 23 24 24 24 24 25 25 26 26 25 23 21 21 20 20 20 20 19 18 18 18 18 20 22 24 26 27
5 5 4 4 4 4 4 5 5 5 6 6 6 6 7 7 7 8 9 10 10 10 9 9 8 8 9 9 9 9 9 9 9 9 10 11 12 13 14 14 14 15 16 16 17 17 18 19 20 20 20 19 19 20 20 21 22 23 24 25 25 25 25 25 25 25 26 25 25 23 22 21 22 22 22 21 20 19 18 18 18 19 20 22 24 26
4 4 4 5 5 5 5 5 5 5 6 6 7 7 8 7 7 7 7 8 9 9 9 9 9 8 9 9 8 8 8 9 9 9 9 9 10 10 10 11 11 11 11 12 12 13 15 17 18 18 18 19 19 20 22 22 24 25 26 26 26 26 25 25 25 25 25 25 24 23 22 22 22 23 23 22 22 21 19 18 18 18 19 21 22 24
5 5 5 5 5 5 5 6 6 6 6 6 7 7 7 7 7 8 8 8 8 8 9 9 9 9 7 8 8 8 8 9 9 9 9 9 9 9 10 10 10 10 10 10 10 11 13 14 14 15 17 18 19 20 22 23 25 26 27 27 26 26 25 25 25 25 25 24 23 23 22 23 23 23 24 23 23 22 21 20 19 19 19 20 22 23
5 5 5 5 5 5 5 6 6 6 6 6 6 7 7 7 7 8 8 8 8 8 8 9 9 8 6 6 7 8 8 8 9 9 10 10 9 9 10 10 10 10 9 10 10 10 12 12 11 12 14 16 19 20 22 24 26 27 27 27 27 26 26 25 25 25 24 23 23 23 23 23 24 24 24 24 23 23 22 21 20 20 20 20 21 22
5 5 5 6 5 5 5 6 6 6 6 6 6 7 7 7 7 7 8 8 8 8 8 8 9 8 6 5 6 7 8 9 9 9 11 10 9 9 10 10 10 10 9 9 9 9 10 10 11 12 13 17 20 23 25 26 26 27 27 27 27 26 26 26 25 24 23 23 23 23 24 24 24 24 24 24 24 23 23 22 21 21 21 21 21 22
5 5 5 5 5 5 5 5 5 5 6 6 6 6 7 7 7 7 7 7 7 7 6 7 7 7 6 5 5 6 9 9 9 10 11 11 10 9 9 10 10 10 10 9 9 9 10 10 10 11 12 17 21 24 26 26 27 27 27 27 27 27 26 25 25 24 23 23 24 24 25 25 24 24 24 24 24 24 23 22 22 22 22 22 22 22
4 4 5 5 5 5 5 5 5 5 6 6 6 6 7 7 7 7 7 7 7 7 7 7 6 6 6 6 6 6 9 9 9 9 10 10 10 9 9 9 10 10 10 10 9 10 10 10 10 11 13 19 23 24 26 26 27 27 27 27 27 26 26 25 24 24 23 24 24 25 25 25 25 24 24 24 24 24 23 23 22 22 22 22 22 23
4 4 5 5 5 5 5 5 6 6 6 7 7 8 8 8 8 8 8 7 7 8 8 8 7 7 7 7 8 8 9 9 9 9 9 10 9 9 9 9 10 10 10 10 10 10 10 10 11 14 18 21 23 24 25 26 27 27 27 27 27 26 26 25 25 25 25 25 25 25 25 25 25 24 24 24 24 24 24 24 23 23 23 23 23 23
4 4 4 5 5 5 6 6 6 7 7 8 8 8 8 8 8 8 8 8 8 8 8 8 8 8 8 8 9 9 9 9 9 9 9 9 9 9 9 9 10 10 10 10 10 10 10 10 11 14 18 20 22 24 25 26 26 26 26 26 26 26 26 26 26 26 26 26 26 26 25 25 25 24 24 24 25 25 25 24 24 24 24 24 23 23
5 5 5 5 5 5 5 5 6 8 9 9 8 8 7 7 8 8 8 8 8 8 8 8 8 8 8 9 9 9 9 9 9 8 7 7 8 8 8 9 10 10 11 11 10 10 10 10 10 11 14 19 22 24 25 25 26 25 25 25 25 26 26 27 27 27 27 27 27 26 25 25 25 24 25 25 25 25 25 25 25 25 24 24 24 24
4 5 5 6 6 5 5 6 8 9 9 9 8 7 7 7 7 8 8 8 8 8 8 8 8 8 8 9 9 9 9 8 8 7 6 7 8 8 7 8 9 10 11 11 11 10 11 11 11 12 15 19 22 24 25 25 24 24 24 24 25 26 27 27 28 28 28 27 27 26 25 25 24 24 25 26 26 26 26 26 25 25 25 25 25 25
5 5 6 6 6 6 6 7 7 8 8 8 7 7 6 6 7 8 8 8 8 8 8 8 9 9 9 9 8 8 8 7 7 7 6 8 8 8 7 8 9 10 10 11 11 11 11 11 11 12 15 20 22 23 24 23 23 23 23 24 25 26 27 27 28 28 28 27 27 26 25 25 24 25 25 26 26 26 26 26 26 25 25 26 26 26
5 5 5 5 5 6 6 6 6 6 6 6 6 6 6 6 7 7 7 7 7 7 7 8 8 9 8 8 8 8 7 7 7 6 5 6 7 8 7 8 9 10 11 11 11 11 12 12 11 11 13 17 20 21 22 22 22 22 23 24 25 26 27 27 27 27 27 27 26 26 26 25 25 25 26 26 26 27 27 26 26 26 26 27 27 27
5 5 5 6 6 7 7 7 7 8 7 6 6 6 6 7 7 7 7 7 7 7 7 8 8 8 7 8 7 7 6 7 7 7 5 5 6 8 8 8 9 10 11 11 11 11 12 12 12 11 11 14 17 19 20 20 21 23 24 25 26 26 27 27 27 26 26 26 26 26 27 27 26 26 26 26 26 26 27 27 27 27 27 28 28 28
6 7 7 8 10 11 11 11 11 11 10 9 7 6 6 7 7 7 6 6 6 7 8 8 8 8 7 6 6 6 6 7 7 6 5 5 6 7 8 8 9 10 11 11 11 11 12 12 12 11 11 12 14 16 18 20 22 23 25 25 26 26 26 26 26 26 26 26 27 27 27 27 27 26 26 26 26 26 27 27 27 28 28 28 27 26
9 9 10 11 12 12 12 12 12 12 12 11 10 9 7 6 6 6 6 6 6 7 7 8 8 8 7 7 7 6 7 6 6 5 6 6 7 7 8 8 8 10 11 11 11 11 12 12 12 11 10 10 11 13 17 20 22 23 25 25 25 26 25 25 25 26 26 26 27 27 28 28 27 27 26 25 25 26 26 27 27 28 27 26 24 21
9 9 10 10 11 11 11 11 11 11 11 12 12 11 8 6 6 6 6 6 6 7 7 7 8 8 7 7 7 7 7 6 5 5 6 6 6 7 7 8 8 9 10 10 11 11 12 11 10 10 10 10 10 12 15 19 21 22 23 24 24 25 25 25 25 26 26 27 27 27 28 27 27 26 26 25 25 25 26 27 27 26 24 20 16 13
8 9 9 9 10 10 10 10 10 10 10 11 11 10 8 5 5 5 6 6 6 7 7 7 7 7 7 7 7 7 7 5 5 6 7 6 6 6 7 7 8 8 9 9 10 10 10 9 8 8 9 10 11 11 13 15 17 18 19 21 22 23 24 24 25 26 26 27 27 27 27 27 27 26 26 25 25 25 25 26 25 23 18 14 12 11
7 8 8 8 8 8 8 8 8 8 9 9 9 8 6 5 4 5 5 6 6 6 7 7 7 7 7 8 7 7 5 5 6 7 8 7 6 6 7 8 8 8 8 8 8 8 8 7 7 7 9 11 11 11 11 12 13 13 14 17 18 19 22 23 25 25 26 26 26 26 26 26 26 26 26 26 25 25 25 25 23 19 13 11 10 10
7 7 7 7 7 7 6 6 6 6 7 8 8 7 6 5 4 5 5 5 5 6 6 7 7 7 7 7 6 5 4 5 6 8 8 6 6 6 8 8 8 8 7 6 7 8 9 8 7 7 9 10 11 11 11 11 11 11 11 12 13 15 19 22 23 24 24 24 25 25 26 26 26 26 26 26 25 24 23 24 21 17 12 11 10 10
7 7 6 6 6 6 5 5 5 5 5 6 5 5 5 5 5 5 5 5 5 6 6 7 7 7 7 6 6 5 5 5 7 8 8 6 6 6 7 7 8 8 7 7 7 7 7 8 8 8 9 9 10 10 10 11 11 11 11 11 12 13 18 20 20 20 20 21 22 24 24 25 26 26 26 25 24 23 22 23 22 18 13 11 10 10
7 6 6 6 6 5 5 5 5 5 5 5 5 5 5 5 5 5 5 5 5 5 6 6 7 7 7 7 7 6 6 6 8 9 9 7 6 6 6 7 8 8 8 7 7 7 7 8 9 9 10 9 9 9 10 10 10 10 11 11 11 12 15 16 16 16 16 17 18 19 21 23 24 24 24 23 22 22 23 24 24 21 17 12 11 10
7 6 6 6 6 5 5 5 5 5 5 5 5 5 5 5 5 5 5 5 5 5 6 6 7 7 7 7 7 7 7 7 9 10 10 7 6 6 7 8 8 8 8 8 8 7 7 9 9 9 9 9 9 9 9 10 10 10 10 11 11 12 13 13 13 13 14 14 14 14 16 17 19 20 19 19 20 22 24 26 26 25 22 16 12 11
6 6 6 6 6 6 6 6 6 6 6 5 5 5 5 5 5 5 6 6 6 6 6 6 6 7 7 7 8 8 8 8 9 11 10 8 6 6 7 7 8 8 8 8 8 7 7 9 10 10 10 10 9 8 8 9 9 10 10 10 11 11 12 12 12 12 13 12 12 12 12 13 13 13 13 16 19 23 25 27 27 26 25 21 17 13
6 6 6 6 6 6 6 6 6 6 6 6 6 6 6 6 6 6 6 6 6 6 7 7 7 7 7 7 8 8 9 9 10 11 11 9 7 6 6 6 7 8 8 9 9 8 8 9 10 11 11 11 10 9 8 8 9 10 10 10 10 11 11 12 12 12 12 12 11 11 11 11 10 10 11 16 20 23 25 26 26 26 25 23 21 18
6 6 6 6 6 6 6 6 6 6 6 6 6 6 6 7 7 7 7 7 7 7 7 8 8 8 8 8 8 9 9 9 10 11 11 10 8 7 6 6 7 8 8 9 9 9 9 10 10 11 10 10 9 8 9 9 10 10 10 10 10 11 11 11 11 11 11 11 11 11 12 11 11 11 12 16 19 20 21 23 23 23 24 23 22 21
6 6 6 5 5 6 6 6 6 6 6 6 6 7 7 8 8 8 8 8 8 8 8 8 8 9 11 11 11 11 11 12 13 13 13 11 9 7 7 7 8 8 8 8 9 9 9 10 10 11 10 9 9 10 10 10 10 11 10 10 10 10 10 11 11 11 11 11 12 12 13 12 12 12 12 13 13 13 14 15 16 18 20 20 20 19
6 6 6 6 6 6 6 6 6 6 7 7 7 7 8 8 9 9 8 8 8 9 9 9 8 9 10 11 12 13 13 13 13 13 13 11 9 8 8 8 8 9 9 8 8 9 9 9 10 10 10 10 10 11 10 10 10 11 11 11 10 10 9 10 11 11 11 11 11 12 13 12 12 11 11 11 10 11 11 12 13 14 15 14 15 15
6 6 6 6 6 6 6 6 7 7 7 7 8 8 8 8 8 7 8 8 8 8 9 9 9 9 9 10 11 11 11 10 10 10 10 8 8 8 8 8 8 9 9 8 8 8 9 9 10 10 10 10 10 10 10 10 11 11 12 11 9 8 9 10 10 10 10 10 10 11 12 12 12 12 11 11 10 10 10 10 11 12 13 12 11 11
6 6 6 6 6 6 7 7 7 7 7 7 7 7 7 7 7 7 7 7 7 8 8 8 8 9 9 9 10 10 11 10 10 10 8 8 8 9 8 8 8 8 9 9 8 8 9 9 10 11 11 11 11 11 12 11 12 13 13 11 10 10 11 11 11 10 9 9 10 10 12 12 12 12 12 12 11 10 10 10 11 12 11 10 10 10
6 6 6 6 6 6 6 7 7 8 8 7 7 7 7 6 6 7 7 7 7 7 7 7 8 8 9 9 9 9 9 9 9 9 8 8 9 9 8 8 8 8 8 8 9 9 9 10 10 10 10 10 11 11 11 11 12 12 12 11 12 12 11 10 10 9 9 9 10 11 12 12 12 12 13 12 12 11 11 11 12 12 12 10 9 9
6 6 6 6 6 7 7 7 7 7 7 6 6 6 7 6 7 7 7 8 8 8 8 7 8 8 9 9 9 9 8 8 9 10 10 9 9 9 9 9 8 8 7 8 9 9 10 10 10 10 10 10 10 11 12 12 12 11 11 11 11 10 8 8 8 9 9 10 10 10 11 11 11 11 12 12 11 11 11 11 12 12 12 10 10 9
6 6 6 6 6 6 7 6 6 6 6 7 7 7 7 7 7 8 8 7 8 8 8 7 8 8 8 9 9 9 9 9 10 10 10 10 10 9 9 9 9 9 8 8 8 9 9 10 10 10 10 10 10 11 11 11 11 11 11 11 11 10 9 9 9 10 10 10 10 10 10 11 11 12 12 12 11 10 10 10 10 10 10 10 10 9
6 6 6 6 6 6 6 6 6 6 6 7 7 7 7 7 7 7 7 7 8 8 8 8 7 7 8 8 9 9 9 9 9 9 9 10 11 11 10 9 9 9 9 8 8 8 9 9 10 10 10 9 10 10 11 11 11 11 11 11 11 10 10 10 10 10 10 10 10 10 11 11 12 12 12 11 11 10 10 10 10 10 10 9 9 9
5 6 6 6 6 6 7 7 7 7 7 7 7 7 7 7 7 7 8 8 8 8 8 8 7 7 8 8 9 8 9 9 9 9 8 9 9 9 9 9 8 8 8 8 8 9 9 9 10 10 10 10 10 10 11 11 11 11 11 11 10 10 10 10 10 10 10 10 11 11 12 12 12 11 11 11 11 11 10 10 10 10 10 9 9 8
6 6 6 6 6 6 7 7 7 7 7 7 7 7 7 7 7 7 8 8 8 8 8 8 8 8 9 9 9 9 9 10 10 9 9 9 9 9 9 9 9 9 9 9 9 9 10 10 10 10 10 10 10 10 10 10 10 10 11 10 10 10 10 10 9 10 10 10 10 11 13 12 12 11 11 11 11 11 10 10 9 9 9 9 9 8
6 7 7 7 7 7 7 7 7 7 7 8 7 7 7 8 8 8 8 8 8 8 8 8 8 9 9 9 9 10 10 10 10 10 10 9 9 9 9 9 9 9 9 10 10 10 10 10 11 11 11 10 10 10 10 10 10 10 10 10 10 10 10 10 10 9 9 10 11 12 12 11 10 11 12 12 11 11 10 10 9 9 8 8 8 8
6 6 7 7 7 7 7 7 7 7 8 8 8 8 8 8 9 9 8 8 8 8 8 8 9 9 9 9 10 10 11 11 10 10 10 9 9 9 9 9 9 9 9 9 10 9 9 10 10 10 10 10 10 10 10 10 10 10 10 10 10 10 10 10 10 10 9 10 11 12 11 10 10 10 10 11 12 12 12 11 10 9 9 8 8 8
6 6 7 7 7 7 7 7 7 8 8 8 8 8 8 8 8 8 8 7 7 7 7 8 9 9 10 10 10 10 11 10 10 10 10 9 9 9 9 9 9 10 9 9 8 8 8 7 7 8 9 9 9 10 10 10 10 10 10 10 9 9 9 10 10 10 10 10 11 11 11 10 10 9 9 10 12 12 12 12 11 10 9 8 8 9
6 6 6 6 7 7 7 7 7 8 8 8 9 8 8 8 8 8 7 7 7 8 8 8 8 9 10 10 10 11 11 10 10 10 10 9 9 9 9 9 10 10 9 9 9 8 7 6 6 6 7 8 9 9 8 10 10 10 10 10 9 9 9 9 9 10 10 10 10 10 11 10 10 9 8 9 10 12 12 12 12 11 10 9 9 10
Wind_Direction
336 336 335 339 337 336 338 343 343 342 342 344 344 343 341 340 338 336 339 341 341 340 337 334 332 331 332 334 336 337 338 337 336 335 333 332 332 331 331 333 336 337 337 336 334 332 330 328 326 324 322 320 319 319 319 321 325 331 338 341 340 337 332 324 315 305 295 286 278 271 266 262 259 256 254 250 245 240 235 233 232 233 234 236 239 241
336 333 333 338 338 336 335 342 344 344 344 343 342 340 339 338 336 336 338 341 341 339 335 332 331 330 330 331 334 336 336 335 334 333 331 330 330 330 331 333 334 335 334 333 331 329 328 326 325 323 322 321 320 319 319 321 325 332 341 343 342 340 337 332 326 318 308 297 288 280 273 267 262 258 255 252 248 244 239 235 233 232 232 234 237 240
335 333 334 338 338 337 334 339 342 343 344 341 339 338 338 337 336 336 338 340 339 337 333 331 329 329 330 330 333 335 334 333 332 330 329 328 328 329 330 332 332 332 331 330 329 327 326 325 323 322 321 320 320 319 319 321 326 333 340 342 341 339 337 336 333 328 322 312 301 290 281 274 267 262 258 255 251 247 243 240 237 235 234 235 236 239
335 333 335 335 335 336 335 335 338 341 342 338 337 337 337 336 335 336 338 337 336 333 330 329 328 328 328 329 332 332 332 331 329 328 327 327 327 328 329 331 331 330 329 328 327 326 325 324 323 322 321 320 319 319 320 323 328 335 340 340 338 336 334 334 334 333 331 325 315 304 292 282 273 267 261 257 254 250 247 244 241 239 238 237 237 238
336 334 334 332 332 332 333 332 334 337 338 336 336 336 336 334 333 334 336 335 333 331 328 328 328 328 327 329 329 329 329 328 327 326 325 326 327 328 329 330 329 328 327 326 325 324 324 323 323 322 321 320 320 320 321 325 331 337 340 339 336 334 332 331 332 332 333 331 327 319 308 295 283 273 265 261 257 253 251 248 246 243 241 239 238 238
334 333 332 331 330 328 328 329 334 338 337 336 335 334 332 332 333 335 336 334 332 329 327 326 326 326 327 327 326 326 325 325 325 324 325 326 327 329 330 329 328 326 325 324 323 323 323 323 322 322 322 321 321 322 324 329 335 339 340 338 336 334 331 330 330 330 331 332 331 328 322 311 299 285 274 266 260 256 253 251 249 247 244 241 239 238
329 330 330 329 327 324 322 327 335 340 339 336 334 332 330 332 334 337 335 332 329 327 324 323 323 324 326 325 324 324 323 323 323 324 325 327 328 330 330 329 327 325 324 323 322 322 322 322 322 322 322 323 324 325 329 333 337 339 340 338 336 334 332 330 329 329 328 329 330 330 329 323 314 303 290 277 268 261 256 253 252 250 248 244 242 240
326 327 329 328 325 322 320 326 337 343 341 336 332 331 332 334 336 336 333 330 328 326 323 323 324 325 326 325 324 323 323 323 324 325 326 328 329 330 329 327 326 324 322 322 321 321 321 321 322 323 324 325 326 328 331 334 337 338 339 337 336 334 332 331 329 328 327 326 327 327 328 327 323 317 308 296 283 271 262 257 254 252 250 248 245 243
326 326 327 328 325 323 322 327 338 344 342 337 333 333 334 336 335 333 332 330 329 328 326 325 325 325 325 325 324 322 321 322 323 325 327 330 331 330 329 326 324 323 321 321 320 320 320 321 322 323 325 325 327 328 331 334 336 337 337 335 334 332 330 329 328 327 326 325 324 324 325 325 325 323 318 311 301 289 277 267 259 255 252 250 248 246
326 325 325 326 325 324 324 328 336 341 341 336 334 335 338 338 336 333 331 331 330 330 328 327 326 324 323 324 323 322 320 319 320 323 327 329 329 328 326 324 322 321 320 320 319 319 320 321 323 324 324 325 326 327 329 332 333 334 334 332 331 329 328 327 326 325 324 322 322 321 322 323 323 322 320 317 312 304 295 283 271 262 256 252 250 248
328 328 326 325 325 326 326 329 333 338 340 336 335 338 343 342 338 334 330 329 329 329 329 327 326 324 323 323 323 322 320 320 322 326 328 329 328 326 325 323 321 320 319 319 319 319 320 322 323 324 323 324 324 326 328 330 331 331 330 329 327 326 325 324 323 322 321 320 320 320 321 322 322 320 318 316 314 310 305 297 287 276 266 258 253 250
331 330 327 325 326 327 330 332 334 337 341 340 340 341 343 344 339 331 325 324 325 327 327 325 324 323 321 320 321 321 322 323 326 328 329 329 329 328 325 323 322 321 320 319 319 320 321 323 324 323 323 323 324 326 328 329 329 328 327 326 325 324 323 322 321 320 319 318 319 319 321 321 320 319 316 314 312 310 308 304 298 290 280 270 261 255
331 329 326 325 327 330 334 337 339 342 347 347 344 341 338 337 333 326 319 318 320 324 325 323 321 319 318 317 318 320 324 325 326 328 328 328 329 328 325 323 322 322 322 319 319 321 323 324 324 322 322 322 324 326 327 327 327 326 325 324 322 322 321 320 319 318 318 318 319 320 322 321 319 317 315 313 311 309 307 305 301 296 290 281 272 263
331 329 327 327 330 334 338 341 342 344 346 346 341 335 328 326 323 320 316 316 318 321 321 319 318 317 317 317 319 322 325 326 327 326 325 326 326 326 323 320 319 320 319 317 318 321 325 325 323 321 322 323 324 325 326 325 324 323 322 322 321 320 319 318 317 317 317 318 320 321 321 320 317 315 313 312 310 308 307 305 302 298 294 287 280 272
330 328 327 328 332 337 341 342 342 341 339 337 331 325 319 318 318 318 316 316 318 320 319 316 315 314 314 318 323 327 329 329 327 326 323 322 322 322 320 317 316 316 316 315 316 320 324 323 320 319 320 322 323 324 323 322 321 321 320 320 319 318 317 317 316 316 317 319 321 322 320 318 316 314 312 311 309 307 306 304 302 299 295 290 284 278
326 326 325 328 331 336 341 340 337 333 328 326 322 318 316 317 317 317 316 316 317 319 319 318 316 314 312 317 325 331 333 331 328 325 321 318 319 320 320 316 314 314 314 314 316 319 321 319 318 317 318 319 320 320 319 318 318 318 319 318 318 317 316 316 316 317 319 321 322 321 319 316 315 313 312 310 308 306 304 303 301 299 296 291 286 281
323 326 328 330 331 333 336 334 329 324 319 317 316 316 317 317 318 318 319 320 321 321 321 320 318 316 314 317 327 336 338 332 327 322 318 314 315 318 319 314 312 312 313 314 317 319 318 317 316 316 316 317 317 317 316 316 316 317 317 317 317 317 316 315 316 318 320 321 320 319 317 315 314 313 312 310 308 306 304 302 301 299 297 293 288 283
325 330 332 332 331 330 330 327 324 322 319 320 321 321 321 321 321 322 324 325 324 323 322 320 317 315 315 316 324 336 340 330 323 317 313 310 311 315 317 312 309 309 312 314 316 316 315 313 313 313 312 313 314 314 314 314 314 315 316 316 316 316 316 317 318 319 321 320 318 316 315 314 313 312 312 311 310 308 306 303 302 300 298 295 291 285
328 332 334 332 330 328 326 327 328 328 329 329 329 328 326 325 326 326 326 325 324 322 320 317 315 312 311 311 319 329 333 324 317 312 308 306 308 312 316 312 310 310 312 313 314 314 311 310 309 309 310 310 311 311 312 312 313 314 315 315 316 317 318 319 320 320 320 318 316 314 313 313 313 313 313 313 311 310 308 305 303 301 299 296 292 288
327 331 336 334 330 327 325 328 331 332 333 332 330 328 325 325 325 325 324 323 321 318 316 312 311 311 311 311 316 322 326 319 313 307 304 304 306 311 315 313 312 312 313 312 312 312 311 310 309 308 309 309 310 310 310 311 311 312 313 314 316 317 319 320 320 319 318 316 314 313 312 312 313 314 314 314 313 311 309 306 304 302 300 298 295 290
326 330 336 336 331 326 324 327 330 331 332 331 329 326 323 323 323 323 322 321 318 316 314 311 310 311 312 311 313 316 319 314 310 307 304 304 306 309 315 315 315 314 312 310 310 311 311 310 309 308 308 308 308 308 308 309 309 310 312 314 316 317 319 319 318 317 316 315 313 312 311 312 313 314 315 314 313 311 309 306 304 302 300 299 296 293
324 326 330 332 329 323 319 322 326 328 330 331 329 326 325 324 323 322 321 319 317 315 313 311 309 309 308 305 306 309 311 309 309 309 309 305 305 309 316 318 316 314 310 309 310 311 312 311 309 307 307 307 306 306 307 307 308 310 312 314 316 317 317 317 316 315 314 313 312 311 310 311 312 313 314 313 312 311 309 307 305 303 302 300 298 295
321 322 325 327 325 321 319 321 323 326 330 330 327 325 323 322 320 318 317 316 313 311 309 307 306 305 302 302 303 307 310 313 314 313 309 303 304 310 320 320 316 312 308 309 312 313 313 310 307 305 305 305 305 305 306 307 309 311 313 315 316 316 315 315 314 314 313 312 312 311 311 311 312 312 312 312 311 310 309 308 306 305 303 302 300 297
323 322 322 323 322 321 319 321 324 326 328 327 325 321 318 316 313 311 309 307 307 308 308 308 306 305 304 306 308 312 317 321 320 316 306 300 303 311 322 321 316 311 308 311 313 313 311 308 306 304 303 303 303 304 306 308 311 313 315 315 315 314 313 313 313 312 312 312 312 312 312 312 312 312 311 311 311 310 310 309 308 306 305 302 300 297
324 322 321 320 320 320 320 322 324 326 327 326 323 320 318 316 313 309 305 307 310 314 315 312 311 310 311 314 315 317 321 324 321 314 306 303 307 312 320 320 315 311 309 311 312 311 308 306 305 304 302 302 303 305 308 311 314 315 316 315 313 313 312 312 312 312 313 313 313 314 313 313 312 311 310 310 310 311 311 310 309 307 305 303 300 296
320 318 317 316 317 318 320 321 323 325 327 326 326 325 325 322 318 314 314 318 322 323 320 315 313 313 315 317 318 319 322 321 318 313 313 311 312 314 317 318 316 312 310 310 310 309 307 305 304 303 302 302 305 309 313 316 317 316 315 313 312 311 311 311 312 313 313 314 315 314 314 313 312 311 310 310 310 311 311 310 309 307 305 303 300 295
316 314 314 315 316 317 319 320 322 324 326 328 330 331 331 327 322 320 323 328 329 326 321 318 316 316 318 318 319 319 320 316 315 319 327 321 315 312 315 317 317 314 310 308 308 307 305 303 302 302 302 305 309 314 318 318 317 315 313 312 311 311 311 312 312 313 314 315 315 314 313 312 311 311 310 310 310 310 310 310 309 307 305 303 300 296
315 314 314 314 315 316 317 318 320 322 326 328 332 334 333 328 324 324 326 328 327 324 320 319 318 318 319 319 317 316 315 311 319 331 339 326 314 309 313 317 317 315 312 308 305 304 301 299 299 301 304 310 314 318 319 318 316 314 312 311 311 311 312 313 314 314 315 315 314 314 313 312 311 311 310 310 310 310 309 310 309 308 306 303 300 297
316 315 313 313 314 315 316 317 318 321 324 327 331 333 333 328 323 322 323 324 323 320 318 317 317 316 316 314 313 311 309 312 327 340 341 325 312 307 313 316 317 317 314 310 306 303 299 298 301 306 310 315 318 318 317 316 314 312 311 311 312 313 314 315 315 316 316 315 314 313 313 312 312 311 310 309 309 309 309 310 311 310 308 304 300 298
322 319 316 316 316 316 316 316 317 319 322 325 327 328 327 323 319 316 316 318 318 317 316 315 315 315 315 314 313 311 310 320 335 341 336 323 313 310 316 316 317 318 319 315 312 308 304 303 306 311 315 317 317 316 315 314 313 312 312 313 314 315 316 317 317 317 316 315 315 314 314 313 312 311 310 308 308 308 310 313 315 315 312 307 303 301
324 322 319 319 318 317 316 316 316 317 320 322 323 323 322 318 315 313 312 313 313 312 311 312 312 313 315 315 314 313 311 322 331 334 331 319 312 311 316 315 315 317 320 317 314 311 309 309 311 314 317 316 314 313 313 313 313 313 314 316 316 317 318 319 319 318 317 316 315 315 315 314 313 311 309 307 307 308 312 317 319 320 315 311 307 305
322 319 317 317 316 315 314 314 315 316 319 320 319 318 317 314 312 310 309 309 308 306 305 305 306 308 309 308 306 304 304 312 321 326 325 316 309 309 313 312 312 313 315 311 307 304 305 307 312 315 316 314 313 312 312 312 313 314 317 318 318 318 319 320 319 318 317 317 316 316 316 315 313 312 309 308 309 312 317 321 323 322 317 313 310 308
317 315 314 314 314 313 313 314 316 317 318 317 316 316 315 313 311 308 305 304 302 301 301 302 302 303 304 301 298 296 296 304 313 319 321 315 309 307 311 310 311 311 311 307 301 297 294 299 305 309 311 311 311 311 311 312 313 316 319 320 319 318 319 320 319 318 318 317 316 316 316 315 314 312 310 311 315 320 325 325 324 322 317 314 312 312
315 314 314 314 314 314 314 316 317 318 318 316 316 315 315 313 311 308 304 301 299 297 297 298 299 300 302 301 299 296 296 301 309 315 317 312 306 304 308 310 310 311 311 307 304 300 293 296 301 305 308 308 309 309 310 312 315 318 320 319 318 316 317 318 318 317 316 316 315 315 316 315 314 313 313 320 325 329 331 327 324 321 318 315 314 314
315 315 315 316 317 316 317 317 319 319 318 317 316 316 316 314 311 308 304 301 299 297 293 292 291 292 294 296 297 297 298 301 308 311 312 307 304 302 305 307 309 311 310 307 306 304 300 300 302 304 305 306 306 307 309 313 316 317 317 316 314 313 314 314 314 314 313 313 312 313 314 312 312 315 322 331 334 333 330 326 322 320 317 316 314 312
315 314 315 316 316 315 315 316 317 318 316 315 315 316 316 313 310 307 305 303 300 297 294 289 286 283 282 284 287 290 293 298 302 305 304 302 301 300 301 304 307 308 306 305 305 305 303 303 303 304 304 304 305 308 311 314 315 314 312 312 312 311 310 310 310 310 311 311 311 311 311 311 314 320 331 334 333 331 327 324 321 318 317 315 313 310
312 312 313 314 314 314 314 316 316 315 314 314 314 315 314 311 308 306 304 303 301 298 295 291 287 284 281 279 280 282 286 291 294 296 297 297 296 296 295 298 300 302 300 302 303 304 304 304 304 304 303 303 304 308 313 315 314 312 310 312 312 311 308 308 308 309 309 310 310 310 312 314 319 324 329 331 330 327 325 322 320 318 316 314 312 309
312 311 312 313 314 314 315 315 315 314 313 313 313 312 310 307 305 304 303 302 301 299 297 295 292 290 288 287 285 284 285 286 288 290 291 291 291 290 289 291 293 294 293 295 298 300 302 302 304 305 305 304 304 306 309 312 313 312 311 311 309 308 306 307 309 310 310 310 311 313 315 318 321 323 324 326 327 326 323 321 319 317 316 315 312 310
312 310 311 313 315 316 316 314 313 312 312 310 308 306 304 302 302 302 302 302 301 300 299 298 296 295 293 291 289 288 287 286 286 287 287 285 283 282 282 285 288 289 290 291 292 294 296 297 299 302 304 305 305 306 307 308 308 309 310 309 307 306 305 308 310 310 310 311 314 317 318 319 320 321 322 324 325 324 322 318 317 316 317 315 314 313
310 310 311 314 315 315 313 311 310 309 307 306 304 302 300 300 301 302 303 302 301 301 300 300 299 298 297 295 294 293 292 289 287 286 285 279 274 272 275 279 283 286 289 290 290 290 291 293 294 296 299 300 302 304 305 306 307 308 310 310 309 308 310 310 309 308 308 312 316 318 318 318 319 320 322 323 322 321 318 314 313 313 313 314 315 315
310 310 311 314 313 312 308 307 306 305 304 303 303 303 302 303 304 305 305 304 303 304 304 304 303 302 301 300 299 298 296 292 290 287 284 276 270 267 269 272 276 280 285 288 289 289 290 291 293 295 296 297 298 299 299 301 303 305 307 305 304 304 307 306 306 306 309 314 316 316 316 317 319 321 322 321 319 315 311 308 306 307 308 310 312 314
309 311 312 313 311 309 307 306 304 303 303 303 303 304 305 306 307 308 307 307 307 307 309 309 309 308 307 305 303 300 299 297 295 292 287 279 273 269 268 269 272 275 280 285 287 289 290 292 293 293 294 296 297 298 298 299 301 302 302 301 301 302 303 303 305 309 314 316 316 316 316 318 320 321 321 319 316 312 308 305 304 305 306 308 309 310
309 310 310 309 307 306 305 305 305 304 305 305 304 304 305 307 308 307 307 306 307 308 309 310 310 309 307 306 305 305 304 302 300 299 297 291 285 280 277 275 274 274 277 283 287 290 292 291 290 290 291 293 294 294 295 298 299 299 298 299 302 304 305 308 311 314 315 315 315 316 318 320 320 319 317 314 312 309 308 306 304 304 304 305 306 308
307 307 307 306 306 305 305 306 306 307 307 306 305 305 306 307 307 306 304 303 305 307 308 309 308 306 303 303 305 307 308 307 305 303 301 299 296 291 287 284 281 279 278 281 285 290 293 293 291 290 290 291 291 291 293 295 297 297 298 298 299 300 300 305 310 313 314 314 315 317 318 320 319 317 314 311 309 309 308 307 306 304 304 304 305 307
306 306 307 307 307 307 307 307 308 308 307 306 305 306 306 308 307 307 305 304 305 306 308 308 308 306 303 304 305 307 308 308 308 307 304 303 301 299 295 292 290 288 286 283 283 285 289 291 292 292 292 290 289 288 290 292 294 295 296 298 299 298 297 300 305 310 313 314 315 316 319 320 319 316 313 310 310 309 308 306 305 304 304 305 305 308
307 307 308 308 308 308 307 308 309 308 306 306 306 307 308 309 308 307 305 305 305 306 306 307 305 303 302 304 305 306 307 308 308 309 309 308 308 306 303 299 296 294 291 287 283 281 280 284 288 291 293 292 289 287 286 289 291 294 297 300 301 301 300 303 306 310 312 313 314 316 320 320 318 315 311 310 309 308 306 304 303 303 304 305 306 309
309 309 308 308 308 308 308 309 309 308 307 307 308 309 310 311 310 308 307 307 306 305 305 305 303 301 300 303 305 306 307 308 308 309 310 311 310 310 308 305 301 299 294 291 287 284 281 280 282 285 288 289 289 288 288 289 291 294 298 301 302 303 303 306 308 311 312 312 313 316 320 320 318 314 310 309 307 306 304 304 303 303 304 304 306 310
309 308 308 308 308 308 308 309 310 309 309 308 309 310 310 311 311 311 309 308 307 305 305 304 303 302 301 302 304 305 305 306 307 309 310 311 311 311 310 308 306 302 298 293 290 287 283 280 279 278 280 282 285 287 290 291 293 294 297 300 302 304 305 306 308 310 311 311 313 315 318 317 315 312 310 309 307 305 305 306 306 306 305 305 308 312
306 306 306 306 307 307 308 310 310 310 309 309 309 310 310 310 310 310 308 308 306 305 304 305 304 303 303 303 304 305 306 305 306 307 309 310 311 311 311 310 308 305 302 298 294 290 286 283 280 278 276 277 280 284 289 292 293 295 296 299 302 304 304 305 307 309 310 311 312 313 314 311 309 307 307 305 304 304 305 306 307 307 307 307 309 310
304 304 305 306 306 307 307 309 310 309 309 309 310 310 310 310 309 308 306 305 304 303 303 304 304 303 303 304 305 307 307 307 307 308 310 311 312 312 311 311 310 308 306 303 301 298 296 291 286 281 278 278 281 285 290 294 296 298 299 300 301 303 303 303 306 308 311 311 311 311 310 307 305 304 302 302 302 303 305 305 306 308 309 310 309 308
304 304 305 305 305 306 307 308 308 308 307 309 309 308 308 308 307 307 306 305 305 304 303 303 303 302 302 303 305 307 308 308 309 309 310 312 312 311 310 310 310 309 308 307 307 307 305 304 300 296 291 290 291 293 294 298 299 301 300 299 300 301 302 302 304 306 309 309 309 308 307 305 304 303 302 302 303 304 305 306 306 308 310 311 310 307